Flag for U.S.A. Weather past 2 weeks in Farmington, New Mexico, U.S.A.

Now
64 °F

Light rain. Overcast.


Feels Like: 64 °F
Forecast: 61 / 74 °F
Wind: 7 mph from East

Location: Four Corners Regional Airport

Current Time: Sep 4, 2015 at 8:37:33 AM

Latest Report: Sep 4, 2015 at 7:53 AM


Visibility: 10 mi

Pressure: 29.93 "Hg (24.75 "Hg at 1617m altitude)

Humidity: 58%

Dew point: 49 °F

Location of FarmingtonLocation

Historic Weather in Farmington — Graph

°F

Farmington temperature yesterday

Maximum temperature yesterday: 85 °F (at 4:53 PM)
Minimum temperature yesterday: 61 °F (at 6:53 AM)
Average temperature yesterday: 73 °F

Past Weeks' High & Low Weather Summary

 TemperatureHumidityPressure
High93 °F (Aug 21, 3:53 PM)93% (Aug 26, 10:02 PM)30.37 "Hg (Aug 26, 10:02 PM)
Low55 °F (Aug 28, 6:53 AM)8% (Aug 20, 4:53 PM)29.75 "Hg (Aug 21, 4:53 PM)
Average74 °F41%29.99 "Hg
* Reported Aug 20 6:53 AM — Sep 4 6:53 AM, Farmington, Weather by CustomWeather, © 2015

Note: Actual official high and low records may vary slightly from our data, if they occured in-between our weather recording intervals... More about our weather records

Advertising

Farmington weather history for previous 24 hours

 ConditionsComfort  
Time TempWeatherWind HumidityBarometerVisibility
6:53 AM
Fri, Sep 4
65 °FOvercast.8 mph54%29.89 "Hg10 mi
5:53 AM65 °FLight rain. Overcast.9 mph59%29.88 "Hg10 mi
4:53 AM65 °FMostly cloudy.9 mph52%29.86 "Hg10 mi
3:53 AM64 °FPassing clouds.3 mph54%29.87 "Hg10 mi
2:53 AM66 °FPassing clouds.7 mph52%29.86 "Hg10 mi
1:53 AM67 °FPassing clouds.6 mph49%29.87 "Hg10 mi
12:53 AM66 °FClear.No wind50%29.88 "Hg10 mi
11:53 PM
Thu, Sep 3
69 °FClear.6 mph45%29.87 "Hg10 mi
10:53 PM72 °FClear.No wind35%29.85 "Hg10 mi
9:53 PM75 °FClear.3 mph26%29.85 "Hg10 mi
8:53 PM77 °FClear.No wind23%29.85 "Hg10 mi
7:53 PM78 °FSunny.5 mph21%29.83 "Hg10 mi
6:53 PM80 °FSunny.6 mph19%29.83 "Hg10 mi
5:53 PM82 °FSunny.12 mph17%29.82 "Hg10 mi
4:53 PM85 °FSunny.10 mph17%29.82 "Hg10 mi
3:53 PM83 °FSunny.5 mph20%29.85 "Hg10 mi
2:53 PM83 °FSunny.5 mph22%29.87 "Hg10 mi
1:53 PM83 °FSunny.8 mph24%29.89 "Hg10 mi
12:53 PM81 °FSunny.8 mph28%29.93 "Hg10 mi
11:53 AM77 °FSunny.No wind35%29.97 "Hg10 mi
10:53 AM73 °FSunny.3 mph43%30.00 "Hg10 mi
9:53 AM70 °FScattered clouds.9 mph49%30.01 "Hg10 mi
8:53 AM65 °FPartly sunny.8 mph59%30.01 "Hg10 mi
Weather by CustomWeather, © 2015

See weather overviewHow to use our weather pages